Location: Smyrna_Hopewell
(35.6500°N, 81.0330°W)
Time: 07:49:03
(UTC-04:00)

Cosmos 2221 - Visible Passes

Search period start: 25 March 2017 00:00
Search period end: 04 April 2017 00:00
Orbit: 595 x 616 km, 82.5° (Epoch: 23 March)

Date Brightness Start Highest point End Pass type
(mag) Time Alt. Az. Time Alt. Az. Time Alt. Az.
28 Mar 5.5 22:45:54 11° N 22:45:54 11° N 22:46:05 10° N visible
29 Mar 5.5 22:58:07 13° NNW 22:58:07 13° NNW 22:58:46 10° NNW visible
30 Mar 4.5 21:33:23 17° NE 21:33:23 17° NE 21:34:36 10° NNE visible
30 Mar 5.6 23:10:11 13° NW 23:10:11 13° NW 23:10:58 10° NW visible
31 Mar 3.5 21:45:17 35° NNE 21:45:17 35° NNE 21:47:57 10° NNE visible
01 Apr 2.8 21:56:56 68° NW 21:56:56 68° NW 22:01:03 10° N visible
02 Apr 4.2 20:31:29 13° ESE 20:32:38 14° E 20:34:56 10° NE visible
02 Apr 3.8 22:08:13 28° SW 22:09:47 39° W 22:13:55 10° N visible
03 Apr 3.6 20:42:04 10° SE 20:45:31 24° E 20:49:04 10° NE visible
03 Apr 4.8 22:19:32 10° SW 22:22:59 23° WNW 22:26:29 10° NNW visible
